Year,Month,Day,Hour,Minute,Value (Times are PST for windspeed in km/hr)
2013,02,24,00,00,6.90
2013,02,24,00,01,3.10
2013,02,24,00,02,10.60
2013,02,24,00,03,8.50
2013,02,24,00,04,5.10
2013,02,24,00,05,7.20
2013,02,24,00,06,8.10
2013,02,24,00,07,7.70
2013,02,24,00,08,7.60
2013,02,24,00,09,6.10
2013,02,24,00,10,3.10
2013,02,24,00,11,3.20
2013,02,24,00,12,5.30
2013,02,24,00,13,1.60
2013,02,24,00,14,3.80
2013,02,24,00,15,3.30
2013,02,24,00,16,3.80
2013,02,24,00,17,6.80
2013,02,24,00,18,6.80
2013,02,24,00,19,3.80
2013,02,24,00,20,5.80
2013,02,24,00,21,5.90
2013,02,24,00,22,3.50
2013,02,24,00,23,2.80
2013,02,24,00,24,1.90
2013,02,24,00,25,5.70
2013,02,24,00,26,5.20
2013,02,24,00,27,8.40
2013,02,24,00,28,8.90
2013,02,24,00,29,8.70
2013,02,24,00,30,9.50
2013,02,24,00,31,7.10
2013,02,24,00,32,1.90
2013,02,24,00,33,5.10
2013,02,24,00,34,5.60
2013,02,24,00,35,7.40
2013,02,24,00,36,4.70
2013,02,24,00,37,4.00
2013,02,24,00,38,7.80
2013,02,24,00,39,4.20
2013,02,24,00,40,4.80
2013,02,24,00,41,10.70
2013,02,24,00,42,8.90
2013,02,24,00,43,6.00
2013,02,24,00,44,4.80
2013,02,24,00,45,6.10
2013,02,24,00,46,4.00
2013,02,24,00,47,10.90
2013,02,24,00,48,11.60
2013,02,24,00,49,5.60
2013,02,24,00,50,8.60
2013,02,24,00,51,4.00
2013,02,24,00,52,6.00
2013,02,24,00,53,2.50
2013,02,24,00,54,5.30
2013,02,24,00,55,9.20
2013,02,24,00,56,5.10
2013,02,24,00,57,2.60
2013,02,24,00,58,6.50
2013,02,24,00,59,7.50
2013,02,24,01,00,2.60
2013,02,24,01,01,5.70
2013,02,24,01,02,7.60
2013,02,24,01,03,5.80
2013,02,24,01,04,4.80
2013,02,24,01,05,6.30
2013,02,24,01,06,6.50
2013,02,24,01,07,7.80
2013,02,24,01,08,6.80
2013,02,24,01,09,8.30
2013,02,24,01,10,5.60
2013,02,24,01,11,7.00
2013,02,24,01,12,6.10
2013,02,24,01,13,6.60
2013,02,24,01,14,6.10
2013,02,24,01,15,3.80
2013,02,24,01,16,7.20
2013,02,24,01,17,9.40
2013,02,24,01,18,6.70
2013,02,24,01,19,4.00
2013,02,24,01,20,5.30
2013,02,24,01,21,5.20
2013,02,24,01,22,8.10
2013,02,24,01,23,5.90
2013,02,24,01,24,9.40
2013,02,24,01,25,6.80
2013,02,24,01,26,4.70
2013,02,24,01,27,8.20
2013,02,24,01,28,3.00
2013,02,24,01,29,2.10
2013,02,24,01,30,5.30
2013,02,24,01,31,4.60
2013,02,24,01,32,6.30
2013,02,24,01,33,7.10
2013,02,24,01,34,7.10
2013,02,24,01,35,6.80
2013,02,24,01,36,6.20
2013,02,24,01,37,7.80
2013,02,24,01,38,6.00
2013,02,24,01,39,5.80
2013,02,24,01,40,4.70
2013,02,24,01,41,4.70
2013,02,24,01,42,6.20
2013,02,24,01,43,8.30
2013,02,24,01,44,9.00
2013,02,24,01,45,7.70
2013,02,24,01,46,13.70
2013,02,24,01,47,7.90
2013,02,24,01,48,6.10
2013,02,24,01,49,4.80
2013,02,24,01,50,4.50
2013,02,24,01,51,4.70
2013,02,24,01,52,3.60
2013,02,24,01,53,6.40
2013,02,24,01,54,3.60
2013,02,24,01,55,2.40
2013,02,24,01,56,4.90
2013,02,24,01,57,4.40
2013,02,24,01,58,4.80
2013,02,24,01,59,6.00
2013,02,24,02,00,7.40
2013,02,24,02,01,6.50
2013,02,24,02,02,5.50
2013,02,24,02,03,9.30
2013,02,24,02,04,7.40
2013,02,24,02,05,6.90
2013,02,24,02,06,5.80
2013,02,24,02,07,7.60
2013,02,24,02,08,7.50
2013,02,24,02,09,6.20
2013,02,24,02,10,5.70
2013,02,24,02,11,6.30
2013,02,24,02,12,4.70
2013,02,24,02,13,6.00
2013,02,24,02,14,4.70
2013,02,24,02,15,3.50
2013,02,24,02,16,4.20
2013,02,24,02,17,4.30
2013,02,24,02,18,4.70
2013,02,24,02,19,3.20
2013,02,24,02,20,0.20
2013,02,24,02,21,2.40
2013,02,24,02,22,3.40
2013,02,24,02,23,0.20
2013,02,24,02,24,0.00
2013,02,24,02,25,0.00
2013,02,24,02,26,2.00
2013,02,24,02,27,4.70
2013,02,24,02,28,4.20
2013,02,24,02,29,3.40
2013,02,24,02,30,1.10
2013,02,24,02,31,5.40
2013,02,24,02,32,8.00
2013,02,24,02,33,4.70
2013,02,24,02,34,1.10
2013,02,24,02,35,1.30
2013,02,24,02,36,2.60
2013,02,24,02,37,0.10
2013,02,24,02,38,0.10
2013,02,24,02,39,0.00
2013,02,24,02,40,2.10
2013,02,24,02,41,4.20
2013,02,24,02,42,1.00
2013,02,24,02,43,3.10
2013,02,24,02,44,4.50
2013,02,24,02,45,2.20
2013,02,24,02,46,2.60
2013,02,24,02,47,1.20
2013,02,24,02,48,0.60
2013,02,24,02,49,1.10
2013,02,24,02,50,0.00
2013,02,24,02,51,0.00
2013,02,24,02,52,0.10
2013,02,24,02,53,0.00
2013,02,24,02,54,0.40
2013,02,24,02,55,1.40
2013,02,24,02,56,0.20
2013,02,24,02,57,0.40
2013,02,24,02,58,1.60
2013,02,24,02,59,0.00
2013,02,24,03,00,0.00
2013,02,24,03,01,0.00
2013,02,24,03,02,1.30
2013,02,24,03,03,1.70
2013,02,24,03,04,0.00
2013,02,24,03,05,1.60
2013,02,24,03,06,5.30
2013,02,24,03,07,2.80
2013,02,24,03,08,3.10
2013,02,24,03,09,0.70
2013,02,24,03,10,0.60
2013,02,24,03,11,1.80
2013,02,24,03,12,1.40
2013,02,24,03,13,3.30
2013,02,24,03,14,4.60
2013,02,24,03,15,3.40
2013,02,24,03,16,3.90
2013,02,24,03,17,3.90
2013,02,24,03,18,2.40
2013,02,24,03,19,4.90
2013,02,24,03,20,6.80
2013,02,24,03,21,10.30
2013,02,24,03,22,7.20
2013,02,24,03,23,2.70
2013,02,24,03,24,2.80
2013,02,24,03,25,1.90
2013,02,24,03,26,2.60
2013,02,24,03,27,1.10
2013,02,24,03,28,3.40
2013,02,24,03,29,2.50
2013,02,24,03,30,0.70
2013,02,24,03,31,2.80
2013,02,24,03,32,1.60
2013,02,24,03,33,0.00
2013,02,24,03,34,0.00
2013,02,24,03,35,0.00
2013,02,24,03,36,0.00
2013,02,24,03,37,0.00
2013,02,24,03,38,1.40
2013,02,24,03,39,0.00
2013,02,24,03,40,0.00
2013,02,24,03,41,0.10
2013,02,24,03,42,3.10
2013,02,24,03,43,2.00
2013,02,24,03,44,1.40
2013,02,24,03,45,0.00
2013,02,24,03,46,0.00
2013,02,24,03,47,0.10
2013,02,24,03,48,0.00
2013,02,24,03,49,0.00
2013,02,24,03,50,0.00
2013,02,24,03,51,0.00
2013,02,24,03,52,0.00
2013,02,24,03,53,0.00
2013,02,24,03,54,0.00
2013,02,24,03,55,0.00
2013,02,24,03,56,0.00
2013,02,24,03,57,0.00
2013,02,24,03,58,0.30
2013,02,24,03,59,0.00
2013,02,24,04,00,0.10
2013,02,24,04,01,0.00
2013,02,24,04,02,0.00
2013,02,24,04,03,0.20
2013,02,24,04,04,0.10
2013,02,24,04,05,0.10
2013,02,24,04,06,0.00
2013,02,24,04,07,0.00
2013,02,24,04,08,0.00
2013,02,24,04,09,0.00
2013,02,24,04,10,0.00
2013,02,24,04,11,0.00
2013,02,24,04,12,0.00
2013,02,24,04,13,0.00
2013,02,24,04,14,0.00
2013,02,24,04,15,0.00
2013,02,24,04,16,0.00
2013,02,24,04,17,0.00
2013,02,24,04,18,0.00
2013,02,24,04,19,0.00
2013,02,24,04,20,0.00
2013,02,24,04,21,0.00
2013,02,24,04,22,0.00
2013,02,24,04,23,0.00
2013,02,24,04,24,0.30
2013,02,24,04,25,0.20
2013,02,24,04,26,2.20
2013,02,24,04,27,0.30
2013,02,24,04,28,0.00
2013,02,24,04,29,0.00
2013,02,24,04,30,0.00
2013,02,24,04,31,0.00
2013,02,24,04,32,0.00
2013,02,24,04,33,0.00
2013,02,24,04,34,0.00
2013,02,24,04,35,0.00
2013,02,24,04,36,0.00
2013,02,24,04,37,0.00
2013,02,24,04,38,0.00
2013,02,24,04,39,0.00
2013,02,24,04,40,0.00
2013,02,24,04,41,0.00
2013,02,24,04,42,0.10
2013,02,24,04,43,0.20
2013,02,24,04,44,0.10
2013,02,24,04,45,0.00
2013,02,24,04,46,0.00
2013,02,24,04,47,0.00
2013,02,24,04,48,0.00
2013,02,24,04,49,0.50
2013,02,24,04,50,1.70
2013,02,24,04,51,0.90
2013,02,24,04,52,0.50
2013,02,24,04,53,1.50
2013,02,24,04,54,0.90
2013,02,24,04,55,0.00
2013,02,24,04,56,0.50
2013,02,24,04,57,0.60
2013,02,24,04,58,0.00
2013,02,24,04,59,0.00
2013,02,24,05,00,0.00
2013,02,24,05,01,0.00
2013,02,24,05,02,0.00
2013,02,24,05,03,0.00
2013,02,24,05,04,0.00
2013,02,24,05,05,0.00
2013,02,24,05,06,0.30
2013,02,24,05,07,0.20
2013,02,24,05,08,0.60
2013,02,24,05,09,1.50
2013,02,24,05,10,0.80
2013,02,24,05,11,0.10
2013,02,24,05,12,1.10
2013,02,24,05,13,0.30
2013,02,24,05,14,0.60
2013,02,24,05,15,1.00
2013,02,24,05,16,1.40
2013,02,24,05,17,0.20
2013,02,24,05,18,0.00
2013,02,24,05,19,0.10
2013,02,24,05,20,0.20
2013,02,24,05,21,3.00
2013,02,24,05,22,1.30
2013,02,24,05,23,3.80
2013,02,24,05,24,4.30
2013,02,24,05,25,2.90
2013,02,24,05,26,11.50
2013,02,24,05,27,9.30
2013,02,24,05,28,9.60
2013,02,24,05,29,9.60
2013,02,24,05,30,9.60
2013,02,24,05,31,9.60
2013,02,24,05,32,9.40
2013,02,24,05,33,5.70
2013,02,24,05,34,6.80
2013,02,24,05,35,8.30
2013,02,24,05,36,12.80
2013,02,24,05,37,7.80
2013,02,24,05,38,6.90
2013,02,24,05,39,15.40
2013,02,24,05,40,15.90
2013,02,24,05,41,16.40
2013,02,24,05,42,11.90
2013,02,24,05,43,9.80
2013,02,24,05,44,9.70
2013,02,24,05,45,10.00
2013,02,24,05,46,11.70
2013,02,24,05,47,10.40
2013,02,24,05,48,12.50
2013,02,24,05,49,17.70
2013,02,24,05,50,14.80
2013,02,24,05,51,9.70
2013,02,24,05,52,9.60
2013,02,24,05,53,8.40
2013,02,24,05,54,12.60
2013,02,24,05,55,10.50
2013,02,24,05,56,8.90
2013,02,24,05,57,8.90
2013,02,24,05,58,9.80
2013,02,24,05,59,6.80
2013,02,24,06,00,11.90
2013,02,24,06,01,10.70
2013,02,24,06,02,7.70
2013,02,24,06,03,9.50
2013,02,24,06,04,8.90
2013,02,24,06,05,4.00
2013,02,24,06,06,5.70
2013,02,24,06,07,4.90
2013,02,24,06,08,7.70
2013,02,24,06,09,8.60
2013,02,24,06,10,11.20
2013,02,24,06,11,6.20
2013,02,24,06,12,6.40
2013,02,24,06,13,10.50
2013,02,24,06,14,9.70
2013,02,24,06,15,8.50
2013,02,24,06,16,10.70
2013,02,24,06,17,8.60
2013,02,24,06,18,6.60
2013,02,24,06,19,8.30
2013,02,24,06,20,12.60
2013,02,24,06,21,12.70
2013,02,24,06,22,10.10
2013,02,24,06,23,8.40
2013,02,24,06,24,6.20
2013,02,24,06,25,6.30
2013,02,24,06,26,6.30
2013,02,24,06,27,6.30
2013,02,24,06,28,6.70
2013,02,24,06,29,7.80
2013,02,24,06,30,5.20
2013,02,24,06,31,8.00
2013,02,24,06,32,11.70
2013,02,24,06,33,13.00
2013,02,24,06,34,9.60
2013,02,24,06,35,8.10
2013,02,24,06,36,8.40
2013,02,24,06,37,7.40
2013,02,24,06,38,7.30
2013,02,24,06,39,8.10
2013,02,24,06,40,11.40
2013,02,24,06,41,8.90
2013,02,24,06,42,6.80
2013,02,24,06,43,10.70
2013,02,24,06,44,9.60
2013,02,24,06,45,11.50
2013,02,24,06,46,11.30
2013,02,24,06,47,7.80
2013,02,24,06,48,6.40
2013,02,24,06,49,7.10
2013,02,24,06,50,7.00
2013,02,24,06,51,6.40
2013,02,24,06,52,6.80
2013,02,24,06,53,5.00
2013,02,24,06,54,4.60
2013,02,24,06,55,4.80
2013,02,24,06,56,0.40
2013,02,24,06,57,4.20
2013,02,24,06,58,8.00
2013,02,24,06,59,7.20
2013,02,24,07,00,7.00
2013,02,24,07,01,5.60
2013,02,24,07,02,8.40
2013,02,24,07,03,6.00
2013,02,24,07,04,5.40
2013,02,24,07,05,4.90
2013,02,24,07,06,3.10
2013,02,24,07,07,6.00
2013,02,24,07,08,6.20
2013,02,24,07,09,5.80
2013,02,24,07,10,6.40
2013,02,24,07,11,6.80
2013,02,24,07,12,6.00
2013,02,24,07,13,6.20
2013,02,24,07,14,6.40
2013,02,24,07,15,6.40
2013,02,24,07,16,6.40
2013,02,24,07,17,6.40
2013,02,24,07,18,6.40
2013,02,24,07,19,6.90
2013,02,24,07,20,7.30
2013,02,24,07,21,7.40
2013,02,24,07,22,6.30
2013,02,24,07,23,5.70
2013,02,24,07,24,8.40
2013,02,24,07,25,6.80
2013,02,24,07,26,6.10
2013,02,24,07,27,5.00
2013,02,24,07,28,4.10
2013,02,24,07,29,5.40
2013,02,24,07,30,7.00
2013,02,24,07,31,6.80
2013,02,24,07,32,5.40
2013,02,24,07,33,11.10
2013,02,24,07,34,7.60
2013,02,24,07,35,6.20
2013,02,24,07,36,10.50
2013,02,24,07,37,7.40
2013,02,24,07,38,4.80
2013,02,24,07,39,4.40
2013,02,24,07,40,5.30
2013,02,24,07,41,5.30
2013,02,24,07,42,4.30
2013,02,24,07,43,5.40
2013,02,24,07,44,9.20
2013,02,24,07,45,6.00
2013,02,24,07,46,4.80
2013,02,24,07,47,6.30
2013,02,24,07,48,1.30
2013,02,24,07,49,1.80
2013,02,24,07,50,2.70
2013,02,24,07,51,1.50
2013,02,24,07,52,5.10
2013,02,24,07,53,6.40
2013,02,24,07,54,6.70
2013,02,24,07,55,4.70
2013,02,24,07,56,6.30
2013,02,24,07,57,2.50
2013,02,24,07,58,0.00
2013,02,24,07,59,1.70
2013,02,24,08,00,3.30
2013,02,24,08,01,8.00
2013,02,24,08,02,10.50
2013,02,24,08,03,5.00
2013,02,24,08,04,2.70
2013,02,24,08,05,5.00
2013,02,24,08,06,8.70
2013,02,24,08,07,7.60
2013,02,24,08,08,8.50
2013,02,24,08,09,9.10
2013,02,24,08,10,12.30
2013,02,24,08,11,12.10
2013,02,24,08,12,10.70
2013,02,24,08,13,7.20
2013,02,24,08,14,6.80
2013,02,24,08,15,6.50
2013,02,24,08,16,6.40
2013,02,24,08,17,7.40
2013,02,24,08,18,11.50
2013,02,24,08,19,12.30
2013,02,24,08,20,7.40
2013,02,24,08,21,1.40
2013,02,24,08,22,1.30
2013,02,24,08,23,0.40
2013,02,24,08,24,0.30
2013,02,24,08,25,2.00
2013,02,24,08,26,0.30
2013,02,24,08,27,3.20
2013,02,24,08,28,6.60
2013,02,24,08,29,7.60
2013,02,24,08,30,4.80
2013,02,24,08,31,7.10
2013,02,24,08,32,7.00
2013,02,24,08,33,4.30
2013,02,24,08,34,4.50
2013,02,24,08,35,9.80
2013,02,24,08,36,10.90
2013,02,24,08,37,8.90
2013,02,24,08,38,11.40
2013,02,24,08,39,9.40
2013,02,24,08,40,10.80
2013,02,24,08,41,10.20
2013,02,24,08,42,7.20
2013,02,24,08,43,7.40
2013,02,24,08,44,5.40
2013,02,24,08,45,8.10
2013,02,24,08,46,6.80
2013,02,24,08,47,6.40
2013,02,24,08,48,4.80
2013,02,24,08,49,4.30
2013,02,24,08,50,2.90
2013,02,24,08,51,3.20
2013,02,24,08,52,3.20
2013,02,24,08,53,3.20
2013,02,24,08,54,3.20
2013,02,24,08,55,2.30
2013,02,24,08,56,1.50
2013,02,24,08,57,4.70
2013,02,24,08,58,1.80
2013,02,24,08,59,0.90
2013,02,24,09,00,2.60
2013,02,24,09,01,7.70
2013,02,24,09,02,9.50
2013,02,24,09,03,9.40
2013,02,24,09,04,11.80
2013,02,24,09,05,12.50
2013,02,24,09,06,10.50
2013,02,24,09,07,6.50
2013,02,24,09,08,4.50
2013,02,24,09,09,2.50
2013,02,24,09,10,9.70
2013,02,24,09,11,14.50
2013,02,24,09,12,8.00
2013,02,24,09,13,5.80
2013,02,24,09,14,5.60
2013,02,24,09,15,12.90
2013,02,24,09,16,9.40
2013,02,24,09,17,8.20
2013,02,24,09,18,7.90
2013,02,24,09,19,6.00
2013,02,24,09,20,2.20
2013,02,24,09,21,0.80
2013,02,24,09,22,6.00
2013,02,24,09,23,10.00
2013,02,24,09,24,11.40
2013,02,24,09,25,7.90
2013,02,24,09,26,5.10
2013,02,24,09,27,3.80
2013,02,24,09,28,3.80
2013,02,24,09,29,3.60
2013,02,24,09,30,5.60
2013,02,24,09,31,6.50
2013,02,24,09,32,3.90
2013,02,24,09,33,4.20
2013,02,24,09,34,1.10
2013,02,24,09,35,0.30
2013,02,24,09,36,6.40
2013,02,24,09,37,4.80
2013,02,24,09,38,5.80
2013,02,24,09,39,4.70
2013,02,24,09,40,1.50
2013,02,24,09,41,4.40
2013,02,24,09,42,7.60
2013,02,24,09,43,6.90
2013,02,24,09,44,5.90
2013,02,24,09,45,9.50
2013,02,24,09,46,10.30
2013,02,24,09,47,10.90
2013,02,24,09,48,9.50
2013,02,24,09,49,6.90
2013,02,24,09,50,5.00
2013,02,24,09,51,5.50
2013,02,24,09,52,5.10
2013,02,24,09,53,5.00
2013,02,24,09,54,4.50
2013,02,24,09,55,5.20
2013,02,24,09,56,8.50
2013,02,24,09,57,7.80
2013,02,24,09,58,7.40
2013,02,24,09,59,7.00
2013,02,24,10,00,6.00
2013,02,24,10,01,8.60
2013,02,24,10,02,10.80
2013,02,24,10,03,5.80
2013,02,24,10,04,8.80
2013,02,24,10,05,12.30
2013,02,24,10,06,12.00
2013,02,24,10,07,12.00
2013,02,24,10,08,18.40
2013,02,24,10,09,13.00
2013,02,24,10,10,11.30
2013,02,24,10,11,12.00
2013,02,24,10,12,10.70
2013,02,24,10,13,13.60
2013,02,24,10,14,9.70
2013,02,24,10,15,7.60
2013,02,24,10,16,7.10
2013,02,24,10,17,7.00
2013,02,24,10,18,6.90
2013,02,24,10,19,11.60
2013,02,24,10,20,11.50
2013,02,24,10,21,11.80
2013,02,24,10,22,9.00
2013,02,24,10,23,11.40
2013,02,24,10,24,9.40
2013,02,24,10,25,11.90
2013,02,24,10,26,14.50
2013,02,24,10,27,10.90
2013,02,24,10,28,11.80
2013,02,24,10,29,7.90
2013,02,24,10,30,8.10
2013,02,24,10,31,8.10
2013,02,24,10,32,8.10
2013,02,24,10,33,8.10
2013,02,24,10,34,8.10
2013,02,24,10,35,8.10
2013,02,24,10,36,12.80
2013,02,24,10,37,13.60
2013,02,24,10,38,13.80
2013,02,24,10,39,12.80
2013,02,24,10,40,9.00
2013,02,24,10,41,7.10
2013,02,24,10,42,7.60
2013,02,24,10,43,8.30
2013,02,24,10,44,9.70
2013,02,24,10,45,6.10
2013,02,24,10,46,3.70
2013,02,24,10,47,3.80
2013,02,24,10,48,5.10
2013,02,24,10,49,4.30
2013,02,24,10,50,5.50
2013,02,24,10,51,6.70
2013,02,24,10,52,5.40
2013,02,24,10,53,6.90
2013,02,24,10,54,10.50
2013,02,24,10,55,12.10
2013,02,24,10,56,8.70
2013,02,24,10,57,8.50
2013,02,24,10,58,5.40
2013,02,24,10,59,4.00
2013,02,24,11,00,2.30
2013,02,24,11,01,7.50
2013,02,24,11,02,11.30
2013,02,24,11,03,7.80
2013,02,24,11,04,7.70
2013,02,24,11,05,7.10
2013,02,24,11,06,7.40
2013,02,24,11,07,10.10
2013,02,24,11,08,7.70
2013,02,24,11,09,9.40
2013,02,24,11,10,9.30
2013,02,24,11,11,15.50
2013,02,24,11,12,11.60
2013,02,24,11,13,7.10
2013,02,24,11,14,8.90
2013,02,24,11,15,9.30
2013,02,24,11,16,14.00
2013,02,24,11,17,9.40
2013,02,24,11,18,7.30
2013,02,24,11,19,7.60
2013,02,24,11,20,6.80
2013,02,24,11,21,6.40
2013,02,24,11,22,6.00
2013,02,24,11,23,7.70
2013,02,24,11,24,9.70
2013,02,24,11,25,10.50
2013,02,24,11,26,5.90
2013,02,24,11,27,8.10
2013,02,24,11,28,5.10
2013,02,24,11,29,4.10
2013,02,24,11,30,8.50
2013,02,24,11,31,7.80
2013,02,24,11,32,9.20
2013,02,24,11,33,6.10
2013,02,24,11,34,5.20
2013,02,24,11,35,3.60
2013,02,24,11,36,6.00
2013,02,24,11,37,3.10
2013,02,24,11,38,3.80
2013,02,24,11,39,3.60
2013,02,24,11,40,4.50
2013,02,24,11,41,7.80
2013,02,24,11,42,8.80
2013,02,24,11,43,5.40
2013,02,24,11,44,8.00
2013,02,24,11,45,9.20
2013,02,24,11,46,4.80
2013,02,24,11,47,4.20
2013,02,24,11,48,6.80
2013,02,24,11,49,6.50
2013,02,24,11,50,8.00
2013,02,24,11,51,6.90
2013,02,24,11,52,6.40
2013,02,24,11,53,4.50
2013,02,24,11,54,6.20
2013,02,24,11,55,5.40
2013,02,24,11,56,3.70
2013,02,24,11,57,3.30
2013,02,24,11,58,5.10
2013,02,24,11,59,4.50
2013,02,24,12,00,5.60
2013,02,24,12,01,3.90
2013,02,24,12,02,7.30
2013,02,24,12,03,6.80
2013,02,24,12,04,4.70
2013,02,24,12,05,3.30
2013,02,24,12,06,3.50
2013,02,24,12,07,2.00
2013,02,24,12,08,4.20
2013,02,24,12,09,5.60
2013,02,24,12,10,5.50
2013,02,24,12,11,4.80
2013,02,24,12,12,4.80
2013,02,24,12,13,4.80
2013,02,24,12,14,5.20
2013,02,24,12,15,7.60
2013,02,24,12,16,6.60
2013,02,24,12,17,7.10
2013,02,24,12,18,11.40
2013,02,24,12,19,10.50
2013,02,24,12,20,5.50
2013,02,24,12,21,6.20
2013,02,24,12,22,8.60
2013,02,24,12,23,6.40
2013,02,24,12,24,5.60
2013,02,24,12,25,3.20
2013,02,24,12,26,2.50
2013,02,24,12,27,1.10
2013,02,24,12,28,3.20
2013,02,24,12,29,5.70
2013,02,24,12,30,5.10
2013,02,24,12,31,5.00
2013,02,24,12,32,3.60
2013,02,24,12,33,4.30
2013,02,24,12,34,4.70
2013,02,24,12,35,2.80
2013,02,24,12,36,0.10
2013,02,24,12,37,1.80
2013,02,24,12,38,1.00
2013,02,24,12,39,2.50
2013,02,24,12,40,3.30
2013,02,24,12,41,3.30
2013,02,24,12,42,10.80
2013,02,24,12,43,6.40
2013,02,24,12,44,4.70
2013,02,24,12,45,4.40
2013,02,24,12,46,5.30
2013,02,24,12,47,6.50
2013,02,24,12,48,8.10
2013,02,24,12,49,7.10
2013,02,24,12,50,6.00
2013,02,24,12,51,3.10
2013,02,24,12,52,4.00
2013,02,24,12,53,3.50
2013,02,24,12,54,1.70
2013,02,24,12,55,1.30
2013,02,24,12,56,4.80
2013,02,24,12,57,8.10
2013,02,24,12,58,3.90
2013,02,24,12,59,4.80
2013,02,24,13,00,5.90
2013,02,24,13,01,4.30
2013,02,24,13,02,2.90
2013,02,24,13,03,5.90
2013,02,24,13,04,4.70
2013,02,24,13,05,5.70
2013,02,24,13,06,6.90
2013,02,24,13,07,4.40
2013,02,24,13,08,6.00
2013,02,24,13,09,5.50
2013,02,24,13,10,6.30
2013,02,24,13,11,6.20
2013,02,24,13,12,8.00
2013,02,24,13,13,5.90
2013,02,24,13,14,6.00
2013,02,24,13,15,7.20
2013,02,24,13,16,7.20
2013,02,24,13,17,6.20
2013,02,24,13,18,4.70
2013,02,24,13,19,8.10
2013,02,24,13,20,8.40
2013,02,24,13,21,10.80
2013,02,24,13,22,7.10
2013,02,24,13,23,5.90
2013,02,24,13,24,8.70
2013,02,24,13,25,12.50
2013,02,24,13,26,9.40
2013,02,24,13,27,8.60
2013,02,24,13,28,10.20
2013,02,24,13,29,9.40
2013,02,24,13,30,7.70
2013,02,24,13,31,8.60
2013,02,24,13,32,10.60
2013,02,24,13,33,7.10
2013,02,24,13,34,5.10
2013,02,24,13,35,7.80
2013,02,24,13,36,8.90
2013,02,24,13,37,7.70
2013,02,24,13,38,8.50
2013,02,24,13,39,10.00
2013,02,24,13,40,9.30
2013,02,24,13,41,7.60
2013,02,24,13,42,4.00
2013,02,24,13,43,8.30
2013,02,24,13,44,10.80
2013,02,24,13,45,8.40
2013,02,24,13,46,5.70
2013,02,24,13,47,7.00
2013,02,24,13,48,8.40
2013,02,24,13,49,6.90
2013,02,24,13,50,9.20
2013,02,24,13,51,8.60
2013,02,24,13,52,6.10
2013,02,24,13,53,6.90
2013,02,24,13,54,6.20
2013,02,24,13,55,7.00
2013,02,24,13,56,9.20
2013,02,24,13,57,12.30
2013,02,24,13,58,5.40
2013,02,24,13,59,5.20
2013,02,24,14,00,5.10
2013,02,24,14,01,5.10
2013,02,24,14,02,6.80
2013,02,24,14,03,5.40
2013,02,24,14,04,0.40
2013,02,24,14,05,0.00
2013,02,24,14,06,2.50
2013,02,24,14,07,6.40
2013,02,24,14,08,7.40
2013,02,24,14,09,8.90
2013,02,24,14,10,7.90
2013,02,24,14,11,5.10
2013,02,24,14,12,6.00
2013,02,24,14,13,4.00
2013,02,24,14,14,7.40
2013,02,24,14,15,6.80
2013,02,24,14,16,6.10
2013,02,24,14,17,6.90
2013,02,24,14,18,7.10
2013,02,24,14,19,7.30
2013,02,24,14,20,4.90
2013,02,24,14,21,10.80
2013,02,24,14,22,12.20
2013,02,24,14,23,9.80
2013,02,24,14,24,10.00
2013,02,24,14,25,10.50
2013,02,24,14,26,15.40
2013,02,24,14,27,11.00
2013,02,24,14,28,10.60
2013,02,24,14,29,7.10
2013,02,24,14,30,9.70
2013,02,24,14,31,6.60
2013,02,24,14,32,9.30
2013,02,24,14,33,8.20
2013,02,24,14,34,6.60
2013,02,24,14,35,5.30
2013,02,24,14,36,2.70
2013,02,24,14,37,6.00
2013,02,24,14,38,6.60
2013,02,24,14,39,6.00
2013,02,24,14,40,5.60
2013,02,24,14,41,6.80
2013,02,24,14,42,7.20
2013,02,24,14,43,4.10
2013,02,24,14,44,2.70
2013,02,24,14,45,5.40
2013,02,24,14,46,4.20
2013,02,24,14,47,6.60
2013,02,24,14,48,4.20
2013,02,24,14,49,0.20
2013,02,24,14,50,4.70
2013,02,24,14,51,6.50
2013,02,24,14,52,5.30
2013,02,24,14,53,4.80
2013,02,24,14,54,6.20
2013,02,24,14,55,5.10
2013,02,24,14,56,6.90
2013,02,24,14,57,5.60
2013,02,24,14,58,3.90
2013,02,24,14,59,7.10
2013,02,24,15,00,4.60
2013,02,24,15,01,4.80
2013,02,24,15,02,6.70
2013,02,24,15,03,4.50
2013,02,24,15,04,2.50
2013,02,24,15,05,0.00
2013,02,24,15,06,0.00
2013,02,24,15,07,1.20
2013,02,24,15,08,3.60
2013,02,24,15,09,5.30
2013,02,24,15,10,2.30
2013,02,24,15,11,0.00
2013,02,24,15,12,0.00
2013,02,24,15,13,2.60
2013,02,24,15,14,6.70
2013,02,24,15,15,6.80
2013,02,24,15,16,4.30
2013,02,24,15,17,5.60
2013,02,24,15,18,6.10
2013,02,24,15,19,5.60
2013,02,24,15,20,4.90
2013,02,24,15,21,5.70
2013,02,24,15,22,6.80
2013,02,24,15,23,7.80
2013,02,24,15,24,5.50
2013,02,24,15,25,6.50
2013,02,24,15,26,7.90
2013,02,24,15,27,6.30
2013,02,24,15,28,5.90
2013,02,24,15,29,7.00
2013,02,24,15,30,8.40
2013,02,24,15,31,7.40
2013,02,24,15,32,4.70
2013,02,24,15,33,4.20
2013,02,24,15,34,7.20
2013,02,24,15,35,4.20
2013,02,24,15,36,4.90
2013,02,24,15,37,3.40
2013,02,24,15,38,2.70
2013,02,24,15,39,5.40
2013,02,24,15,40,4.20
2013,02,24,15,41,4.30
2013,02,24,15,42,8.70
2013,02,24,15,43,4.80
2013,02,24,15,44,4.70
2013,02,24,15,45,6.20
2013,02,24,15,46,5.30
2013,02,24,15,47,5.60
2013,02,24,15,48,5.10
2013,02,24,15,49,4.30
2013,02,24,15,50,2.40
2013,02,24,15,51,2.10
2013,02,24,15,52,5.40
2013,02,24,15,53,5.30
2013,02,24,15,54,3.10
2013,02,24,15,55,2.90
2013,02,24,15,56,1.70
2013,02,24,15,57,0.90
2013,02,24,15,58,1.90
2013,02,24,15,59,1.80
2013,02,24,16,00,1.70
2013,02,24,16,01,2.40
2013,02,24,16,02,3.10
2013,02,24,16,03,3.60
2013,02,24,16,04,0.70
2013,02,24,16,05,1.70
2013,02,24,16,06,1.70
2013,02,24,16,07,3.60
2013,02,24,16,08,4.90
2013,02,24,16,09,6.90
2013,02,24,16,10,4.30
2013,02,24,16,11,0.80
2013,02,24,16,12,0.30
2013,02,24,16,13,0.10
2013,02,24,16,14,0.00
2013,02,24,16,15,1.20
2013,02,24,16,16,2.40
2013,02,24,16,17,1.90
2013,02,24,16,18,0.60
2013,02,24,16,19,0.20
2013,02,24,16,20,0.00
2013,02,24,16,21,1.30
2013,02,24,16,22,2.30
2013,02,24,16,23,1.50
2013,02,24,16,24,1.40
2013,02,24,16,25,1.50
2013,02,24,16,26,0.00
2013,02,24,16,27,0.60
2013,02,24,16,28,0.60
2013,02,24,16,29,1.20
2013,02,24,16,30,2.10
2013,02,24,16,31,2.30
2013,02,24,16,32,1.30
2013,02,24,16,33,2.40
2013,02,24,16,34,4.90
2013,02,24,16,35,3.90
2013,02,24,16,36,6.00
2013,02,24,16,37,4.30
2013,02,24,16,38,2.50
2013,02,24,16,39,3.90
2013,02,24,16,40,4.30
2013,02,24,16,41,5.60
2013,02,24,16,42,3.70
2013,02,24,16,43,0.70
2013,02,24,16,44,3.10
2013,02,24,16,45,4.70
2013,02,24,16,46,4.30
2013,02,24,16,47,3.90
2013,02,24,16,48,1.80
2013,02,24,16,49,3.20
2013,02,24,16,50,1.80
2013,02,24,16,51,6.60
2013,02,24,16,52,5.20
2013,02,24,16,53,6.80
2013,02,24,16,54,6.00
2013,02,24,16,55,4.30
2013,02,24,16,56,7.80
2013,02,24,16,57,5.60
2013,02,24,16,58,4.00
2013,02,24,16,59,4.10
2013,02,24,17,00,3.90
2013,02,24,17,01,3.10
2013,02,24,17,02,1.40
2013,02,24,17,03,3.30
2013,02,24,17,04,1.20
2013,02,24,17,05,1.50
2013,02,24,17,06,3.10
2013,02,24,17,07,1.90
2013,02,24,17,08,1.10
2013,02,24,17,09,3.90
2013,02,24,17,10,5.80
2013,02,24,17,11,7.40
2013,02,24,17,12,7.00
2013,02,24,17,13,4.10
2013,02,24,17,14,5.20
2013,02,24,17,15,4.70
2013,02,24,17,16,0.70
2013,02,24,17,17,0.00
2013,02,24,17,18,1.40
2013,02,24,17,19,0.50
2013,02,24,17,20,0.00
2013,02,24,17,21,0.80
2013,02,24,17,22,1.30
2013,02,24,17,23,5.40
2013,02,24,17,24,4.40
2013,02,24,17,25,1.80
2013,02,24,17,26,1.90
2013,02,24,17,27,2.30
2013,02,24,17,28,3.50
2013,02,24,17,29,1.50
2013,02,24,17,30,0.70
2013,02,24,17,31,0.00
2013,02,24,17,32,1.20
2013,02,24,17,33,1.40
2013,02,24,17,34,3.50
2013,02,24,17,35,0.60
2013,02,24,17,36,0.10
2013,02,24,17,37,0.00
2013,02,24,17,38,0.00
2013,02,24,17,39,1.40
2013,02,24,17,40,0.60
2013,02,24,17,41,3.10
2013,02,24,17,42,4.70
2013,02,24,17,43,5.10
2013,02,24,17,44,4.00
2013,02,24,17,45,6.40
2013,02,24,17,46,3.80
2013,02,24,17,47,2.50
2013,02,24,17,48,0.30
2013,02,24,17,49,1.90
2013,02,24,17,50,5.70
2013,02,24,17,51,6.10
2013,02,24,17,52,3.60
2013,02,24,17,53,1.50
2013,02,24,17,54,3.20
2013,02,24,17,55,4.30
2013,02,24,17,56,7.60
2013,02,24,17,57,7.40
2013,02,24,17,58,4.50
2013,02,24,17,59,7.60
2013,02,24,18,00,4.80
2013,02,24,18,01,5.40
2013,02,24,18,02,6.40